EW6327 Weather Reports


time (UTC)temp
C
wind
direction
speed
KPH
gust
KPH
rain 1hr
cm
rain 24hr
cm
rain mn
cm
humidity
%
barometer
mb
20260505025020 13 323 0.0 0.0 0.00 0.00 0.00 61 1008.8
20260505024546 13 189 0.0 0.0 0.00 0.00 0.00 61 1008.8
20260505024020 13 257 0.0 0.0 0.00 0.00 0.00 60 1008.9
20260505023520 13 252 0.0 0.0 0.00 0.00 0.00 60 1008.8
20260505023020 13 312 0.0 0.0 0.00 0.00 0.00 59 1008.9
20260505022519 13 263 0.0 0.0 0.00 0.00 0.00 59 1008.9
20260505022019 14 252 0.0 0.0 0.00 0.00 0.00 58 1009.0
20260505021536 14 341 0.0 0.0 0.00 0.00 0.00 58 1009.0
20260505021018 14 233 0.0 0.0 0.00 0.00 0.00 57 1009.0
20260505020518 14 273 0.0 0.0 0.00 0.00 0.00 57 1008.9
20260505020019 14 262 0.0 0.0 0.00 0.00 0.00 56 1008.8
20260505015521 14 272 0.0 0.0 0.00 0.00 0.00 56 1008.8
20260505015019 14 213 0.0 0.0 0.00 0.00 0.00 55 1008.8
20260505014523 15 267 0.0 0.0 0.00 0.00 0.00 55 1008.8
20260505014019 15 277 0.0 0.0 0.00 0.00 0.00 54 1008.8
20260505013518 15 307 0.0 0.0 0.00 0.00 0.00 54 1008.7
20260505013017 15 272 0.0 0.0 0.00 0.00 0.00 53 1008.6
20260505012519 15 280 0.0 8.0 0.00 0.00 0.00 53 1008.6
20260505012017 15 248 0.0 8.0 0.00 0.00 0.00 53 1008.5
20260505011518 15 236 0.0 0.0 0.00 0.00 0.00 52 1008.4
20260505011017 15 244 0.0 0.0 0.00 0.00 0.00 52 1008.4
20260505010516 15 272 0.0 0.0 0.00 0.00 0.00 52 1008.2
20260505010017 15 355 0.0 0.0 0.00 0.00 0.00 52 1008.2
20260505005516 15 301 0.0 0.0 0.00 0.00 0.00 51 1008.0
20260505005017 16 267 0.0 0.0 0.00 0.00 0.00 51 1008.0
20260505004527 16 296 0.0 9.7 0.00 0.00 0.00 50 1007.9
20260505004016 16 250 0.0 9.7 0.00 0.00 0.00 50 1007.7
20260505003515 16 333 0.0 8.0 0.00 0.00 0.00 49 1007.6
20260505003016 16 286 0.0 0.0 0.00 0.00 0.00 49 1007.6
20260505002515 16 159 0.0 0.0 0.00 0.00 0.00 48 1007.3
20260505002015 16 342 0.0 0.0 0.00 0.00 0.00 48 1007.2
20260505001515 16 290 0.0 0.0 0.00 0.00 0.00 48 1007.0
20260505001017 16 273 0.0 0.0 0.00 0.00 0.00 48 1006.9
20260505000514 17 293 0.0 0.0 0.00 0.00 0.00 47 1006.8
20260505000015 17 343 0.0 1.6 0.00 0.00 0.00 47 1006.7
20260504235514 17 288 0.0 1.6 0.00 0.00 0.00 47 1006.6
20260504235017 17 283 0.0 0.0 0.00 0.00 0.00 47 1006.4
20260504234517 17 277 0.0 0.0 0.00 0.00 0.00 46 1006.5
20260504234017 17 247 0.0 1.6 0.00 0.00 0.00 46 1006.3
20260504233513 17 329 0.0 1.6 0.00 0.00 0.00 45 1006.3
20260504233013 17 298 0.0 0.0 0.00 0.00 0.00 45 1006.2
20260504232513 17 254 0.0 0.0 0.00 0.00 0.00 45 1006.2
20260504232012 18 254 0.0 1.6 0.00 0.00 0.00 45 1006.1
20260504231513 18 251 0.0 1.6 0.00 0.00 0.00 44 1006.1
20260504231015 18 289 0.0 0.0 0.00 0.00 0.00 43 1005.9
20260504230512 18 268 0.0 3.2 0.00 0.00 0.00 43 1005.9
20260504230013 18 277 0.0 0.0 0.00 0.00 0.00 42 1005.8
20260504225513 19 310 0.0 0.0 0.00 0.00 0.00 41 1005.6
20260504225012 19 252 0.0 19.3 0.00 0.00 0.00 41 1005.6
20260504224512 19 350 0.0 19.3 0.00 0.00 0.00 40 1005.4
20260504224011 19 263 0.0 1.6 0.00 0.00 0.00 39 1005.5
20260504223511 20 271 0.0 1.6 0.00 0.00 0.00 39 1005.3
20260504223011 20 340 0.0 1.6 0.00 0.00 0.00 39 1005.2
20260504222510 20 338 0.0 0.0 0.00 0.00 0.00 38 1005.4
20260504222014 20 296 0.0 9.7 0.00 0.00 0.00 37 1005.2
20260504221510 20 260 0.0 9.7 0.00 0.00 0.00 37 1005.2
20260504221010 20 241 0.0 0.0 0.00 0.00 0.00 37 1005.1
20260504220515 20 331 0.0 1.6 0.00 0.00 0.00 36 1005.2
20260504220010 21 253 0.0 17.7 0.00 0.00 0.00 35 1005.3
20260504215510 21 243 8.0 17.7 0.00 0.00 0.00 33 1005.2
20260504215009 21 237 0.0 6.4 0.00 0.00 0.00 33 1005.1
20260504214509 21 346 0.0 0.0 0.00 0.00 0.00 33 1005.1
20260504214009 21 36 0.0 0.0 0.00 0.00 0.00 32 1005.1
20260504213512 21 281 0.0 3.2 0.00 0.00 0.00 31 1005.2
20260504213008 21 290 0.0 17.7 0.00 0.00 0.00 31 1005.1
20260504212508 21 344 3.2 17.7 0.00 0.00 0.00 31 1005.1
20260504212008 21 314 0.0 0.0 0.00 0.00 0.00 31 1005.1
20260504211507 22 328 0.0 1.6 0.00 0.00 0.00 31 1005.0
20260504211007 22 331 0.0 3.2 0.00 0.00 0.00 31 1005.1
20260504210510 22 18 0.0 0.0 0.00 0.00 0.00 30 1005.0
20260504210008 22 254 0.0 0.0 0.00 0.00 0.00 31 1005.1
20260504205508 22 345 0.0 0.0 0.00 0.00 0.00 31 1005.1
20260504205006 22 269 0.0 0.0 0.00 0.00 0.00 31 1005.1
20260504204514 22 237 0.0 0.0 0.00 0.00 0.00 30 1005.2
20260504204006 22 322 0.0 0.0 0.00 0.00 0.00 31 1005.1
20260504203506 22 331 0.0 1.6 0.00 0.00 0.00 31 1005.1
20260504203007 22 269 0.0 1.6 0.00 0.00 0.00 30 1005.1
20260504202506 22 15 0.0 16.1 0.00 0.00 0.00 30 1005.1
20260504202005 22 315 3.2 16.1 0.00 0.00 0.00 30 1005.3
20260504201505 22 350 0.0 1.6 0.00 0.00 0.00 29 1005.2
20260504201004 22 340 0.0 1.6 0.00 0.00 0.00 30 1005.2
20260504200504 22 340 0.0 25.7 0.00 0.00 0.00 30 1005.2
20260504200004 22 355 4.8 16.1 0.00 0.00 0.00 30 1005.4
20260504195504 22 54 1.6 12.9 0.00 0.00 0.00 29 1005.3
20260504195003 22 326 0.0 14.5 0.00 0.00 0.00 30 1005.2
20260504194504 22 281 4.8 16.1 0.00 0.00 0.00 29 1005.4
20260504194001 22 336 6.4 20.9 0.00 0.00 0.00 29 1005.3
20260504193600 22 250 6.4 20.9 0.00 0.00 0.00 29 1005.3
20260504193102 22 248 6.4 16.1 0.00 0.00 0.00 29 1005.3
20260504192559 22 116 1.6 16.1 0.00 0.00 0.00 31 1005.2
20260504192101 22 262 0.0 0.0 0.00 0.00 0.00 27 1005.5
20260504191558 22 342 0.0 0.0 0.00 0.00 0.00 28 1005.5
20260504191057 22 360 0.0 0.0 0.00 0.00 0.00 29 1005.4
20260504190557 22 343 0.0 0.0 0.00 0.00 0.00 28 1005.4
20260504190057 22 343 0.0 0.0 0.00 0.00 0.00 28 1005.5
20260504185556 22 345 0.0 0.0 0.00 0.00 0.00 29 1005.6
20260504185055 22 332 0.0 14.5 0.00 0.00 0.00 28 1005.6
20260504184559 22 24 1.6 16.1 0.00 0.00 0.00 28 1005.6
20260504184055 22 300 3.2 17.7 0.00 0.00 0.00 28 1005.7
20260504183553 22 325 3.2 20.9 0.00 0.00 0.00 30 1005.7
20260504183054 21 333 3.2 20.9 0.00 0.00 0.00 31 1005.7
20260504182551 21 309 0.0 0.0 0.00 0.00 0.00 31 1005.7
20260504182051 21 336 0.0 19.3 0.00 0.00 0.00 29 1005.8
20260504181553 21 337 1.6 19.3 0.00 0.00 0.00 30 1005.7
20260504181050 21 254 6.4 29.0 0.00 0.00 0.00 30 1005.8
20260504180550 21 341 11.3 29.0 0.00 0.00 0.00 29 1006.0
20260504180048 21 291 0.0 16.1 0.00 0.00 0.00 33 1005.8
20260504175547 21 336 6.4 16.1 0.00 0.00 0.00 31 1006.1
20260504175047 21 289 0.0 0.0 0.00 0.00 0.00 30 1006.2
20260504174549 21 259 0.0 0.0 0.00 0.00 0.00 29 1006.1
20260504174047 21 271 0.0 1.6 0.00 0.00 0.00 30 1005.9
20260504173546 21 320 0.0 1.6 0.00 0.00 0.00 30 1006.2
20260504173046 21 329 0.0 0.0 0.00 0.00 0.00 31 1006.2
20260504172545 21 290 0.0 1.6 0.00 0.00 0.00 34 1006.2
20260504172044 21 321 0.0 8.0 0.00 0.00 0.00 32 1006.3
20260504171545 20 360 0.0 8.0 0.00 0.00 0.00 33 1006.3
20260504171043 20 355 0.0 0.0 0.00 0.00 0.00 33 1006.3
20260504170544 20 33 0.0 0.0 0.00 0.00 0.00 30 1006.2
20260504151027 19 346 0.0 0.0 0.00 0.00 0.00 33 1007.7
20260504150529 19 341 0.0 0.0 0.00 0.00 0.00 36 1007.6
20260504141017 18 334 0.0 0.0 0.00 0.00 0.00 41 1008.0
20260504140515 17 340 0.0 0.0 0.00 0.00 0.00 40 1008.1
20260504130559 15 341 0.0 0.0 0.00 0.00 0.00 46 1008.9
20260504110534 8 321 0.0 0.0 0.00 0.03 0.00 58 1009.2
20260504100522 6 321 0.0 0.0 0.00 0.03 0.00 65 1009.4
20260504081526 6 321 0.0 0.0 0.00 0.03 0.00 66 1009.2
20260504081010 6 321 0.0 0.0 0.00 0.03 0.00 68 1009.2
20260504080510 6 332 0.0 0.0 0.00 0.03 0.00 70 1009.1
20260504050538 2 332 0.0 0.0 0.00 0.03 0.00 85 1008.9
20260504045537 1 332 0.0 0.0 0.00 0.03 0.00 85 1009.0
20260504045035 1 332 0.0 0.0 0.00 0.03 0.00 85 1009.0
20260504044535 1 332 0.0 0.0 0.00 0.03 0.00 85 1009.1
20260504044035 1 332 0.0 0.0 0.00 0.03 0.00 85 1009.0
20260504043535 1 332 0.0 0.0 0.00 0.03 0.00 85 1009.0
20260504043039 1 332 0.0 0.0 0.00 0.03 0.00 84 1009.0
20260504042532 1 332 0.0 0.0 0.00 0.03 0.00 84 1009.0
20260504042031 1 332 0.0 0.0 0.00 0.03 0.00 84 1009.0
20260504041530 1 331 0.0 0.0 0.00 0.03 0.00 84 1008.9
20260504041029 1 332 0.0 0.0 0.00 0.03 0.00 84 1008.8
20260504040529 1 332 0.0 0.0 0.00 0.03 0.00 83 1008.7
20260504040028 1 331 0.0 0.0 0.00 0.03 0.00 83 1008.7
20260504035527 1 331 0.0 0.0 0.00 0.03 0.03 83 1008.7
20260504035026 1 332 0.0 0.0 0.00 0.03 0.03 82 1008.6
20260504034526 1 332 0.0 0.0 0.00 0.03 0.03 81 1008.6
20260504034025 2 332 0.0 0.0 0.00 0.03 0.03 81 1008.6
20260504033526 2 332 0.0 0.0 0.00 0.03 0.03 81 1008.4
20260504033024 2 332 0.0 0.0 0.00 0.03 0.03 80 1008.5
20260504032523 2 332 0.0 0.0 0.00 0.03 0.03 79 1008.5
20260504032023 2 332 0.0 0.0 0.00 0.03 0.03 79 1008.4
20260504031523 2 332 0.0 0.0 0.00 0.03 0.03 79 1008.5
20260504031021 2 332 0.0 0.0 0.00 0.03 0.03 78 1008.4
20260504030521 2 331 0.0 0.0 0.00 0.03 0.03 78 1008.4
20260504030026 2 332 0.0 0.0 0.00 0.03 0.03 78 1008.4
20260504025520 2 332 0.0 0.0 0.00 0.03 0.03 77 1008.4